Regional Weather Roundup
Issued by NWS

Home | Current Version | Previous Version | Text Only | Print | Product List | Glossary On
Versions: 1 2 3 4 5 6 7 8 9 10 11 12 13 14 15 16 17 18 19 20 21 22 23 24 25 26 27
000
ASUS46 KPQR 181810
RWROR

OREGON REGIONAL WEATHER ROUNDUP
NATIONAL WEATHER SERVICE PORTLAND OR
1100 AM PDT WED OCT 18 2017

NOTE: "FAIR" INDICATES FEW OR NO CLOUDS BELOW 12,000 FEET WITH
NO SIGNIFICANT WEATHER AND/OR OBSTRUCTIONS TO VISIBILITY.

ORZ001>013-181900-
NORTHWEST OREGON


CITY           SKY/WX    TMP DP  RH WIND       PRES   REMARKS
ASTORIA        CLOUDY    58  55  90 S22G36    29.83F
6HR MIN TEMP:  47; 6HR MAX TEMP:  58; 6HR PCP:  0.13;

NEWPORT        CLOUDY    57  55  94 S18G25    29.99S
PORTLAND       LGT RAIN  52  51  97 E14       29.94F
6HR MIN TEMP:  50; 6HR MAX TEMP:  52; 6HR PCP:  0.06;

VANCOUVER WA   LGT RAIN  53  53 100 SE7       29.93F
6HR MIN TEMP:  50; 6HR MAX TEMP:  53; 6HR PCP:  0.05;

SCAPPOOSE      LGT RAIN  51  51 100 CALM      29.92F FOG
6HR MIN TEMP:  49; 6HR MAX TEMP:  51;

HILLSBORO      CLOUDY    55  53  93 SE3       29.92F
6HR MIN TEMP:  49; 6HR MAX TEMP:  55; 6HR PCP:  0.02;

AURORA         CLOUDY    61  54  77 S16       29.94F
6HR MIN TEMP:  51; 6HR MAX TEMP:  61; 6HR PCP: TRACE;

MCMINNVILLE    CLOUDY    61  55  81 S17       29.94F
6HR MIN TEMP:  52; 6HR MAX TEMP:  61; 6HR PCP: TRACE;

SALEM          CLOUDY    63  54  72 S14       29.94F
6HR MIN TEMP:  55; 6HR MAX TEMP:  63;

CORVALLIS      PTSUNNY   60  53  77 S15       29.98F
EUGENE         PTSUNNY   61  54  77 S13       30.00F
6HR MIN TEMP:  50; 6HR MAX TEMP:  61;

$$

ORZ021-028-181900-
SOUTHWEST OREGON


CITY           SKY/WX    TMP DP  RH WIND       PRES   REMARKS
NORTH BEND     CLOUDY    58  56  93 S8        30.04S
6HR MIN TEMP:  51; 6HR MAX TEMP:  58;

BROOKINGS      SUNNY     56  48  74 S7        30.08F
ROSEBURG       MOSUNNY   52  47  83 CALM      30.04F
6HR MIN TEMP:  44; 6HR MAX TEMP:  52;

SEXTON SUMMIT  SUNNY     61  30  31 S8        30.08S
6HR MIN TEMP:  50; 6HR MAX TEMP:  61;

GRANTS PASS    FAIR      54  39  58 CALM      30.11F
MEDFORD        SUNNY     53  38  56 CALM      30.08F
6HR MIN TEMP:  37; 6HR MAX TEMP:  53;

$$

ORZ014>016-041-181900-
COLUMBIA GORGE


CITY           SKY/WX    TMP DP  RH WIND       PRES   REMARKS
TROUTDALE      CLOUDY    52  50  93 E10       29.95F
6HR MIN TEMP:  51; 6HR MAX TEMP:  52; 6HR PCP:  0.04;

HOOD RIVER     LGT RAIN  46  43  87 CALM      29.97F
THE DALLES     CLOUDY    51  43  74 CALM      29.97F
6HR MIN TEMP:  47; 6HR MAX TEMP:  51;

$$

ORZ029>031-041-044-049-050-061>064-502-503-505>511-181900-
EASTERN OREGON


CITY           SKY/WX    TMP DP  RH WIND       PRES   REMARKS
MADRAS         CLOUDY    61  59  94 SE12      30.00F
REDMOND        PTSUNNY   57  30  35 S12       30.00F
6HR MIN TEMP:  41; 6HR MAX TEMP:  57;

BEND           PTSUNNY   55  32  41 SW13      30.03F
PRINEVILLE     CLOUDY    54  36  50 S6        30.03F
KLAMATH FALLS  SUNNY     54  30  40 E3        30.13F
6HR MIN TEMP:  25; 6HR MAX TEMP:  54;

LAKEVIEW       SUNNY     57  26  30 SE7       30.16F
HERMISTON      CLOUDY    54  48  80 N3        29.95F
6HR MIN TEMP:  49; 6HR MAX TEMP:  54; 6HR PCP: TRACE;

PENDLETON      CLOUDY    55  46  71 SE6       29.95F
6HR MIN TEMP:  48; 6HR MAX TEMP:  55;

JOHN DAY       MOSUNNY   63  33  32 S3        30.06F
MEACHAM        LGT RAIN  52  44  74 CALM      30.03F
6HR MIN TEMP:  41; 6HR MAX TEMP:  52; 6HR PCP: TRACE;

LA GRANDE        N/A     56  36  47 SE12      30.05F
BAKER CITY     CLOUDY    49  38  65 CALM      30.08F
6HR MIN TEMP:  37; 6HR MAX TEMP:  49;

BURNS          SUNNY     55  31  39 VRB3      30.12F
6HR MIN TEMP:  23; 6HR MAX TEMP:  56;

ROME             N/A     65  22  19 VRB5      30.12F
6HR MIN TEMP:  32; 6HR MAX TEMP:  66;

ONTARIO        MOSUNNY   52  35  52 VRB3      30.14F
6HR MIN TEMP:  31; 6HR MAX TEMP:  53;

$$




USA.gov is the U.S. government's official web portal to all federal, state and local government web resources and services.